Showing default

NUVIEW BRAVO, 62457

Orbit data source: Space-Track

NUVIEW BRAVO, 62457 is a UK payload satellite in HEO that was launched on Sun, 29 Dec 2024 UTC via an FALCON 9 launch vehicle from the Air Force Eastern Test Range (AFETR). Payload-class satellites include a variety of spacecraft equipped with specific instruments for various scientific and technological missions. These include communications satellites like Starlink; space stations such as the ISS; scientific satellites like the Hubble; Earth observation satellites from companies like Planet Labs, Umbra, and HawkEye 360; GPS; miniature CubeSats for education and research; and military/defense satellites.

Loading next visibility...
Identifier
62457, 2024-252D
Orbit
HEO
Last TLE update
2 days ago
Origin
Manufacturer
Astranis
Mission
Operational Commercial Communications
Bus & Motor
MICROGEO, EP
Mass
400 kg wet, 400 kg dry
Launch date (UTC)
2024-12-29 (4 months ago)
Launch vehicle
FALCON 9
Launch site
Air Force Eastern Test Range (AFETR)
Object type
Payload
Rocket body
Debris
Shape & HBR
Box + 22 Pan, 10 m
Radar Cross Section
41.175 m²

Expand to show TLE details & history

TLE from 2 days ago
0 NUVIEW BRAVO
1 62457U 24252D   25127.73323748 -.00000265  00000-0  00000+0 0  9996
2 62457   0.8384 328.2310 3563651 223.1480  40.4313  0.75636976  1226
Epoch: 2025-05-07T17:35Z
Definitive object data (Epoch: 2025-05-07T17:35:51.718Z)
Latitude
-0.71125°
Longitude
138.82949°
Altitude
34,690.594 km
Speed
3.403 km/s
True Right ascension
17h 54m 26s
True Declination
0° 42' 38"
Sunlit
Object was in daylight at TLE epoch
Visualization TLE readout
Latitude
0.64094°
Longitude
-114.1757°
Altitude
62,601.984 km
Speed
1.93 km/s
Apparent Right ascension
01h 13m 00s
Apparent Declination
-2° 53' 53"
Sunlit
Object is in daylight
Visualization observer readout
Local Sidereal Time
22:30:32
Azimuth
128.929° SE
Elevation
33.298°
Doppler factor
1
Orbital elements
Apogee altitude
62,640.28 km
Perigee altitude
26,373.12 km
Semi-major axis
50,884.837 km
Eccentricity
0.3563651
Inclination
0.8384°
RAAN
328.231°
Arg. of periapsis
223.148°
True anomaly
77.28542°
Mean anomaly
40.4313°
Eccentric anomaly
57.6877°
Mean motion
0.18909 °/min
BSTAR
Unknown
Orbital period
1903.89 mins
Loading maneuver chart data...
Loading SW <> Apogee altitude chart data...
Loading historical data...
Loading historical data...
Loading historical data...
Loading historical data...
Loading historical data...
Loading historical data...
Loading historical data...
Other satellites on launch #252 in the year 2024 (2024-12-29 UTC)

NUVIEW BRAVO Visibility forecast

Observer location: undefined°, undefined°

Span
Click to sort rows by Start time (UTC) header in descending order
Start Az.
Max El. time (UTC)
Max El. Az.
Max El.
End time (UTC)
End Az.
1440 mins2025-05-09 14:20:24.045Z128.938° SE2025-05-09 18:31:24.045Z179.338° S36.199°2025-05-10 14:20:24.045Z198.054° SSW
|